Regional Weather Roundup
Issued by NWS State College, PA

Home | Current Version | Previous Version | Text Only | Print | Product List | Glossary Off
Versions: 1 2 3 4 5 6 7 8 9 10 11 12 13 14 15 16 17 18 19 20 21 22 23 24 25 26 27 28 29 30 31 32 33 34 35 36 37 38 39 40 41 42 43 44 45 46 47 48 49 50

000
ASUS41 KCTP 060703
RWRCTP

REGIONAL WEATHER ROUNDUP
NATIONAL WEATHER SERVICE STATE COLLEGE PA
200 AM EST TUE DEC 06 2016

Note: "fair" indicates few or no clouds below 12,000 feet with no
significant weather and/or obstructions to visibility.

* = STATION THAT DOES NOT REPORT PRECIPITATION /E.G. RAIN...SNOW...ETC/
    THUNDER OR FOG.

PAZ002>004-007>009-013>016-020>023-029>032-060800-
WESTERN PENNSYLVANIA

CITY           SKY/WX    TMP DP  RH WIND       PRES   REMARKS
ERIE           CLOUDY    33  28  81 S3        30.08F
MEADVILLE      CLOUDY    30  26  85 E7        30.04F
FRANKLIN*        N/A     27  19  74 E5        30.06S
NEW CASTLE     FAIR      28  26  92 E7        30.03F
BEAVER COUNTY  NOT AVBL
BUTLER*        PTCLDY    30  25  80 E7        30.05F
PITTSBURGH INT MOCLDY    32  28  85 E6        30.01F
PITTSBURGH     PTCLDY    33  25  72 E7        30.01F
INDIANA*       CLEAR     32  28  86 E3        30.08S
LATROBE        PTCLDY    28  28 100 MISG      30.04S
WASHINGTON CO* CLOUDY    32  27  80 NE8       29.99F
$$

PAZ004>006-010>012-017>019-024>028-033>037-041-042-045-046-049>053-060800-
CENTRAL PENNSYLVANIA

CITY           SKY/WX    TMP DP  RH WIND       PRES   REMARKS
BRADFORD       CLOUDY    33  29  85 NE3       30.05S
DUBOIS         CLEAR     29  25  85 E5        30.04S
CLEARFIELD     CLEAR     27  27 100 N3        30.07F
JOHNSTOWN      PTCLDY    29  26  89 E5        30.02S
ALTOONA        CLOUDY    30  27  88 CALM      30.09R
STATE COLLEGE  CLEAR     29  26  90 NW5       30.08F
WILLIAMSPORT   CLOUDY    35  28  75 CALM      30.11F
SELINSGROVE    CLOUDY    26  26 100 CALM      30.13F
FT INDIANTOWN  CLOUDY    29  29  99 S3        30.13R
CAPITAL CITY   CLOUDY    32  27  81 CALM      30.14R
HARRISBURG     MOCLDY    32  30  92 CALM      30.14R
YORK           PTCLDY    29  29 100 CALM      30.13S
$$

PAZ038>040-043-044-047-048-054-055-060>062-067>071-060800-
EASTERN PENNSYLVANIA

CITY           SKY/WX    TMP DP  RH WIND       PRES   REMARKS
SCRANTON       PTCLDY    29  26  89 CALM      30.10R
MOUNT POCONO   CLEAR     26  23  88 W3        30.05S
ALLENTOWN      CLOUDY    30  26  85 CALM      30.12F
QUAKERTOWN*    CLOUDY    28  27  93 CALM      30.12F
READING        PTCLDY    31  28  89 CALM      30.12F
LANCASTER      CLOUDY    33  30  88 W6        30.14R
COATESVILLE    MOSUNNY   36  28  75 W3        30.14R
POTTSTOWN      PTCLDY    31  28  89 CALM      30.13F
BLUE BELL      PTCLDY    34  30  86 CALM      30.12R
DOYLESTOWN     PTCLDY    36  29  75 N3        30.11F
WILLOW GROVE   NOT AVBL
NORTH PHILA    PTCLDY    38  30  73 N7        30.14S
PHILADELPHIA   LGT RAIN  40  30  67 N6        30.14R
$$



USA.gov is the U.S. government's official web portal to all federal, state and local government web resources and services.